Regional Weather Roundup
Issued by NWS Grand Forks, ND

Home | Current Version | Previous Version | Text Only | Print | Product List | Glossary Off
Versions: 1 2 3 4 5 6 7 8 9 10 11 12 13 14 15 16 17 18 19 20 21 22 23 24 25 26 27 28 29 30 31 32 33 34 35 36 37 38 39 40 41 42 43 44 45 46 47 48 49 50

276
ASUS43 KFGF 220531
RWRFGF
PRAIRIE TO PINES  WEATHER ROUNDUP
NATIONAL WEATHER SERVICE EASTERN NORTH DAKOTA/GRAND FORKS ND
1100 PM CST SAT JAN 21 2017

 **SATELLITE DATA USED TO AUGMENT SKY COVER AT AUTOMATED STATIONS**
 *****  WEATHER ACROSS EASTERN NORTH DAKOTA  *****

CITY           SKY/WX    TMP DP  RH WIND       PRES   REMARKS
GRAND FORKS    FOG       34  32  92 CALM      29.56R VSB 1/4
GRAND FRKS AFB FOG       32  32 100 CALM      29.56R VSB 1
DEVILS LAKE    CLOUDY    32  30  92 SW7       29.56R
FARGO          FOG       36  34  92 CALM      29.57R VSB 1/4
WAHPETON ARPT  CLOUDY    32  32 100 CALM      29.58R VSB 1/4
$$

 ***** WEATHER ACROSS CENTRAL AND WESTERN NORTH DAKOTA  *****

CITY           SKY/WX    TMP DP  RH WIND       PRES   REMARKS
BISMARCK       FAIR      18  16  92 CALM      29.61R
MINOT          CLOUDY    29  27  92 SW6       29.54R FOG     WCI  23
JAMESTOWN      CLOUDY    32  31  96 W12       29.57R FOG     WCI  23
MINOT AFB      CLOUDY    30  28  93 NW12      29.55R FOG     WCI  21
GARRISON         N/A     26  24  92 W9        29.56R WCI  17
WILLISTON      CLOUDY    30  28  92 W10       29.60R WCI  21
DICKINSON      FAIR      19  16  88 W13       29.56R WCI   6
HETTINGER      FAIR      18  15  88 W9        29.60R WCI   7
$$

 *****  OTHER AIRPORT OBSERVATIONS IN OUR AREA  *****

CITY           SKY/WX    TMP DP  RH WIND       PRES   REMARKS
WALHALLA       NOT AVBL
GRAFTON AIRPOR FOG       32  32 100 CALM      29.59R VSB 1/4
VALLEY CITY AR CLOUDY    32  32 100 NW6       29.58R FOG
CANDO          NOT AVBL
CAVALIER APRT  FOG       32  32 100 CALM      29.58R VSB 1/4
GWINNER        CLOUDY    34  34 100 NW6       29.58R
SHEYENNE NWR     N/A     33  33 100 CALM      29.95S
ROLLA            N/A    N/A N/A N/A MISG        N/A
 ***** THE ABOVE OBSERVATIONS ARE NON NWS ARE NOT QUALITY
       CONTROLLED AND MAY MIS-REPORT RAIN FOR SNOW...
$$

  *****  WEATHER ACROSS NORTHERN MINNESOTA  *****

CITY           SKY/WX    TMP DP  RH WIND       PRES   REMARKS
FLAG ISLAND    FOG       34  32  93 CALM      29.59R VSB 1/2
WARROAD        FOG       34  28  80 CALM      29.59S VSB 1/4
ROSEAU         FOG       34  30  86 E3        29.58S VSB 1/2
HALLOCK        CLOUDY    36  34  93 E5        29.57S
THF RVR FALLS  CLOUDY    34  33  96 E6        29.57R
BAUDETTE       FOG       34  33  96 NE3       29.57S VSB 1/4
WASKISH        FOG       36  34  93 CALM      29.57R VSB 1/2
CROOKSTON      CLOUDY    34  34 100 SE3       29.58R
STEPHEN NDAWN    N/A     34  34 100 E2          N/A
GREENBUSH NDAW   N/A     34  34 100 E3          N/A
$$
  *****  WEATHER ACROSS CENTRAL AND WEST MINNESOTA  *****

CITY           SKY/WX    TMP DP  RH WIND       PRES   REMARKS
FOSSTON        FOG       30  30 100 CALM      29.57R VSB 1
BEMIDJI        FOG       33  33 100 CALM      29.56R VSB 3/4
PARK RAPIDS    FOG       34  31  88 CALM      29.54R VSB 1/2
ELBOW LAKE     SNOW      32  32 100 CALM      29.57R VSB 1/2
WADENA         DRZL/FOG  34  34 100 CALM      29.55R VSB 1/4
DETROIT LAKES  FOG       34  34 100 CALM      29.57R VSB 1/2
MOORHEAD       FOG       34  32  93 CALM      29.59R VSB 1/4
FERGUS FALLS   CLOUDY    34  34 100 CALM      29.61R FOG
MORRIS MN      FOG       34  34 100 CALM      29.56R VSB 1/4
STAPLES        FOG       34  34 100 CALM      29.55R VSB 1/2
$$
  *****  WEATHER ELSEWHERE ACROSS MINNESOTA  *****

CITY           SKY/WX    TMP DP  RH WIND       PRES   REMARKS
DULUTH         CLOUDY    34  34 100 NE7       29.53R
INTRNTL FALLS  FOG       34  33  96 NE3       29.57S VSB 1/4
ELY            CLOUDY    34  34 100 CALM      29.55S
CLOQUET        FOG       34  34 100 CALM      29.54R VSB 1
WHEATON        FOG       39  39 100 CALM      29.59R VSB 1/4
BRAINERD       CLOUDY    34  34 100 CALM      29.56R FOG
HIBBING        FOG       32  32 100 CALM      29.54R VSB 1
ALEXANDRIA     FOG       34  33  96 CALM      29.56R VSB 1/2
SAINT CLOUD    FOG       34  34 100 CALM      29.55R VSB 1/2
MINNEAPOLIS    DRZL/FOG  36  35  96 CALM      29.54R VSB 1/4
$$

  *****  WEATHER ACROSS SOUTH DAKOTA  *****

CITY           SKY/WX    TMP DP  RH WIND       PRES   REMARKS
SIOUX FALLS    CLOUDY    32  30  92 NW8       29.57R WCI  25
BROOKINGS      CLOUDY    31  29  92 MISG      29.55R
WATERTOWN      CLOUDY    30  29  96 NW8       29.55R WCI  22
HURON          CLOUDY    31  29  92 NW6       29.59R
SISSETON         N/A     33  33 100 N3        29.56R
ABERDEEN       CLOUDY    33  29  85 NW8       29.58R
MITCHELL       CLOUDY    32  30  92 NW8       29.60R WCI  25
PIERRE         FAIR      20  17  88 NW10      29.58R WCI   9
MOBRIDGE       FOG       15  11  83 CALM      29.57R VSB 1/4
RAPID CITY     FAIR      28  22  78 N12       29.62R WCI  18
$$

  *****  SOME WEATHER IN NEARBY STATES *****

CITY           SKY/WX    TMP DP  RH WIND       PRES   REMARKS
GLASGOW MT     CLOUDY    18  15  88 NE5       29.63R WCI  11
GREAT FALLS MT CLOUDY    27  22  81 SW6       29.68R WCI  20
CHEYENNE WY    CLOUDY    29  20  69 NW7       29.64R WCI  22
SCOTTSBLUFF NE MOCLDY    27  24  89 NW5       29.64R WCI  22
OMAHA NE       FAIR      32  28  85 N3        29.56R FOG
DES MOINES IA  FOG       31  29  92 S8        29.57R VSB 1/2 WCI  23
DAVENPORT IA   CLOUDY    40  37  89 NW7       29.60S
CHICAGO IL     FOG       41  41 100 NW8       29.59F VSB 1/4
EAU CLAIRE WI  FOG       34  34 100 W3        29.52R VSB 1/4
LA CROSSE WI   CLOUDY    40  37  89 S5        29.54R
$$

  *****  SOME NATIONAL WEATHER *****

CITY           SKY/WX    TMP DP  RH WIND       PRES   REMARKS
LA GUARDIA NY  FOG       46  45  96 S5        29.78F VSB 1
RALEIGH NC     FOG       55  55 100 CALM      29.66F VSB 1/8
ATLANTA GA     CLOUDY    57  56  96 SE6       29.65F
NEW ORLEANS LA FAIR      71  68  90 SW13      29.53R
OKLAHOMA CITY  MOCLDY    49  43  80 S3        29.33S
ALBUQUERQUE NM CLOUDY    39  23  52 W8        29.83R
SALT LAKE CITY MOCLDY    32  28  85 SE6       29.91R
LOS ANGELES CA MOCLDY    56  48  74 SW5       30.09S
BOISE ID       FAIR      37  30  75 SE13      29.78R
SEATTLE WA     LGT RAIN  44  43  96 SE6       29.58S
$$

*** WEATHER ACROSS MANITOBA...SASKATCHEWAN AND ONTARIO ***
                ***ONTARIO***

CITY           SKY/WX    TMP DP  RH WIND       PRES   REMARKS
GERALDTON      FRZ DRZL  32  32 100 E9        29.65S VSB 3/8 WCI  24
THUNDER BAY    LGT SNOW  34  34 100 NE9       29.59S FOG
SIOUX LOOKOUT  CLOUDY    34  34 100 E3        29.61R FOG
TORONTO        FOG       39  39 100 E3        29.69F VSB 1/4
BIG TROUT LK   CLOUDY    25  23  93 E8        29.77S WCI  16
PICKLE LAKE    NOT AVBL
DRYDEN         FOG       34  34 100 NE5       29.59R VSB 1/4
KENORA         FOG       34  34 100 SE2       29.59  VSB 1/4
$$
                *** MANITOBA***

CITY           SKY/WX    TMP DP  RH WIND       PRES   REMARKS
BRANDON        FOG       32  32 100 E2        29.54R VSB 3/8
DAUPHIN        CLOUDY    32  32 100 NE5       29.56R FOG
ISLAND LAKE    FLURRIES  30  30 100 E5        29.67R
PILOT MOUND      N/A     32  32 100 S6          N/A
THE PAS        FOG       32  32 100 E6        29.60R VSB 1/2
THOMPSON       LGT SNOW  30  28  93 E5        29.68S FOG
WINNIPEG       CLOUDY    34  34 100 SE5       29.59R
LYNN LAKE      LGT SNOW  28  28 100 NE7       29.67S WCI  21
CHURCHILL      FLURRIES  16  14  93 SE13      29.88S WCI   2
GILLAM         CLOUDY    27  25  93 SE6       29.76R WCI  20
$$
                ***SASKATCHEWAN***

CITY           SKY/WX    TMP DP  RH WIND       PRES   REMARKS
ESTEVAN        CLOUDY    27  27 100 W12       29.55R FOG     WCI  16
KINDERSLEY     FLURRIES  25  25 100 N10       29.65R WCI  15
LLOYDMINSTER   CLOUDY    23  23 100 N13G22    29.71R FOG     WCI  11
PRINCE ALBERT  CLOUDY    27  23  86 N12       29.59R WCI  16
REGINA         FLURRIES  25  23  93 NW14      29.57R WCI  13
YORKTON        LGT SNOW  28  28 100 W3        29.53R
N. BATTLEFORD  LGT SNOW  27  27 100 NW13      29.68R WCI  16
LA RONGE       LGT SNOW  27  25  93 N10       29.65R WCI  17
SASKATOON      FLURRIES  27  25  93 N7        29.62R WCI  19
SWIFT CURRENT  FRZ RAIN  27  27 100 NW17G23   29.60R FOG     WCI  14
$$
NOTE: THESE ARE AUTOMATED STATIONS WITH LIMITED QUALITY CONTROL
      "FAIR" INDICATES FEW OR NO CLOUDS BELOW 12,000 FEET WITH NO
      SIGNIFICANT WEATHER AND/OR OBSTRUCTIONS TO VISIBILITY.
      SKY/WX - SKY CONDITION AND SIGNIFICANT WEATHER.
      TMP - AIR TEMPERATURE.    DP   - DEWPOINT TEMPERATURE.
      RH  - RELATIVE HUMIDITY.  PRES - PRESSURE.
      HX  - HEAT INDEX.         WCI  - WIND CHILL INDEX.
$




USA.gov is the U.S. government's official web portal to all federal, state and local government web resources and services.